TimeCST,TemperatureF,Dew PointF,Humidity,Sea Level PressureIn,VisibilityMPH,Wind Direction,Wind SpeedMPH,Gust SpeedMPH,PrecipitationIn,Events,Conditions,WindDirDegrees,DateUTC
12:15 AM,-6.0,-10.5,81,30.07,5.0,West,3.5,-,N/A,Snow,Light Snow,260,2013-12-31 06:15:00
12:35 AM,-6.2,-10.7,81,30.06,5.0,West,4.6,-,N/A,Snow,Light Snow,260,2013-12-31 06:35:00
12:55 AM,-6.0,-10.5,81,30.05,4.0,West,4.6,-,N/A,Snow,Light Snow,260,2013-12-31 06:55:00
1:15 AM,-5.8,-10.5,80,30.06,5.0,WSW,3.5,-,N/A,Snow,Light Snow,250,2013-12-31 07:15:00
1:35 AM,-5.8,-10.5,80,30.05,4.0,WSW,4.6,-,N/A,Snow,Light Snow,250,2013-12-31 07:35:00
1:55 AM,-5.8,-10.5,80,30.05,5.0,West,4.6,-,N/A,Snow,Light Snow,260,2013-12-31 07:55:00
2:15 AM,-5.8,-10.5,80,30.06,5.0,West,5.8,-,N/A,Snow,Light Snow,280,2013-12-31 08:15:00
2:35 AM,-5.4,-10.3,80,30.07,7.0,West,6.9,-,N/A,Snow,Light Snow,280,2013-12-31 08:35:00
2:55 AM,-5.4,-10.3,80,30.07,5.0,West,6.9,-,N/A,Snow,Light Snow,280,2013-12-31 08:55:00
3:15 AM,-5.4,-10.3,80,30.07,5.0,WNW,5.8,-,N/A,Snow,Light Snow,290,2013-12-31 09:15:00
3:35 AM,-5.4,-10.3,80,30.07,5.0,WNW,3.5,-,N/A,Snow,Light Snow,290,2013-12-31 09:35:00
3:55 AM,-5.4,-10.5,79,30.06,7.0,Calm,Calm,-,N/A,,Overcast,0,2013-12-31 09:55:00
4:15 AM,-5.8,-10.7,79,30.06,7.0,Calm,Calm,-,N/A,,Overcast,0,2013-12-31 10:15:00
4:35 AM,-6.2,-10.8,80,30.06,7.0,West,3.5,-,N/A,Snow,Light Snow,260,2013-12-31 10:35:00
4:55 AM,-7.2,-11.7,81,30.06,4.0,WSW,3.5,-,N/A,Snow,Light Snow,250,2013-12-31 10:55:00
5:15 AM,-7.8,-11.7,83,30.07,5.0,WSW,3.5,-,N/A,Snow,Light Snow,250,2013-12-31 11:15:00
5:35 AM,-8.9,-13.0,82,30.08,7.0,WSW,4.6,-,N/A,Snow,Light Snow,250,2013-12-31 11:35:00
5:55 AM,-8.9,-13.0,82,30.08,10.0,West,6.9,-,N/A,,Scattered Clouds,270,2013-12-31 11:55:00
6:15 AM,-9.2,-13.4,82,30.09,10.0,West,6.9,-,N/A,,Scattered Clouds,270,2013-12-31 12:15:00
7:15 AM,-10.7,-14.8,82,30.10,10.0,West,8.1,-,N/A,,Clear,270,2013-12-31 13:15:00
7:35 AM,-10.8,-15.0,82,30.10,10.0,West,6.9,-,N/A,,Clear,270,2013-12-31 13:35:00
7:55 AM,-12.6,-17.0,81,30.09,7.0,WNW,5.8,-,N/A,,Clear,290,2013-12-31 13:55:00
8:15 AM,-11.2,-15.3,82,30.10,10.0,West,5.8,-,N/A,,Clear,260,2013-12-31 14:15:00
8:35 AM,-10.1,-14.6,81,30.10,7.0,West,8.1,-,N/A,,Clear,270,2013-12-31 14:35:00
8:55 AM,-9.0,-13.5,81,30.11,10.0,West,5.8,-,N/A,,Clear,260,2013-12-31 14:55:00
9:15 AM,-8.5,-13.0,81,30.12,10.0,West,4.6,-,N/A,,Clear,260,2013-12-31 15:15:00
9:35 AM,-8.1,-13.0,79,30.13,10.0,West,6.9,-,N/A,,Clear,270,2013-12-31 15:35:00
9:55 AM,-7.6,-12.5,79,30.14,10.0,West,8.1,-,N/A,,Clear,280,2013-12-31 15:55:00
10:15 AM,-6.7,-12.1,77,30.15,10.0,West,8.1,-,N/A,,Clear,260,2013-12-31 16:15:00
10:55 AM,-5.3,-11.7,74,30.15,10.0,WSW,9.2,-,N/A,,Clear,240,2013-12-31 16:55:00
11:15 AM,-4.9,-12.5,70,30.15,10.0,SW,9.2,-,N/A,,Clear,230,2013-12-31 17:15:00
11:35 AM,-4.2,-13.0,66,30.15,10.0,West,11.5,-,N/A,,Clear,260,2013-12-31 17:35:00
11:55 AM,-3.8,-13.7,63,30.15,10.0,West,10.4,-,N/A,,Clear,260,2013-12-31 17:55:00
12:15 PM,-4.9,-13.2,68,30.15,10.0,WSW,10.4,-,N/A,,Clear,240,2013-12-31 18:15:00
12:35 PM,-4.0,-13.0,65,30.16,10.0,West,10.4,-,N/A,,Clear,270,2013-12-31 18:35:00
12:55 PM,-3.6,-13.4,63,30.17,10.0,West,12.7,-,N/A,,Clear,270,2013-12-31 18:55:00
1:15 PM,-3.5,-13.0,64,30.17,10.0,West,9.2,-,N/A,,Clear,270,2013-12-31 19:15:00
1:35 PM,-4.0,-13.5,64,30.17,10.0,West,9.2,-,N/A,,Clear,260,2013-12-31 19:35:00
1:55 PM,-3.8,-13.2,64,30.17,10.0,West,8.1,-,N/A,,Clear,260,2013-12-31 19:55:00
2:15 PM,-4.0,-13.5,64,30.17,10.0,West,9.2,-,N/A,,Clear,270,2013-12-31 20:15:00
2:35 PM,-4.2,-13.9,63,30.17,10.0,West,6.9,-,N/A,,Clear,260,2013-12-31 20:35:00
2:55 PM,-4.4,-13.9,64,30.17,10.0,West,5.8,-,N/A,,Clear,260,2013-12-31 20:55:00
3:15 PM,-5.1,-14.4,64,30.18,10.0,West,5.8,-,N/A,,Clear,260,2013-12-31 21:15:00
3:35 PM,-5.8,-14.8,65,30.18,10.0,West,6.9,-,N/A,,Clear,270,2013-12-31 21:35:00
3:55 PM,-6.7,-15.2,67,30.19,10.0,West,6.9,-,N/A,,Clear,270,2013-12-31 21:55:00
4:15 PM,-8.0,-15.9,68,30.19,10.0,West,4.6,-,N/A,,Clear,280,2013-12-31 22:15:00
4:55 PM,-9.0,-16.6,69,30.21,10.0,WNW,4.6,-,N/A,,Clear,290,2013-12-31 22:55:00
5:15 PM,-9.4,-15.9,73,30.22,10.0,West,3.5,-,N/A,,Clear,280,2013-12-31 23:15:00
5:35 PM,-11.7,-17.3,76,30.22,10.0,WNW,3.5,-,N/A,,Clear,290,2013-12-31 23:35:00
5:55 PM,-10.5,-16.1,76,30.22,10.0,Calm,Calm,-,N/A,,Clear,0,2013-12-31 23:55:00
6:15 PM,-14.1,-19.1,78,30.23,10.0,Calm,Calm,-,N/A,,Clear,0,2014-01-01 00:15:00
6:35 PM,-13.5,-18.0,80,30.24,10.0,WNW,3.5,-,N/A,,Clear,290,2014-01-01 00:35:00
6:55 PM,-13.5,-18.6,78,30.25,10.0,NW,3.5,-,N/A,,Clear,310,2014-01-01 00:55:00
7:15 PM,-12.1,-17.5,77,30.25,10.0,NW,4.6,-,N/A,,Clear,320,2014-01-01 01:15:00
7:35 PM,-12.1,-17.0,79,30.25,10.0,NNW,3.5,-,N/A,,Clear,340,2014-01-01 01:35:00
7:55 PM,-14.1,-19.1,78,30.26,10.0,North,3.5,-,N/A,,Clear,350,2014-01-01 01:55:00
8:15 PM,-12.8,-18.6,75,30.26,10.0,North,3.5,-,N/A,,Clear,360,2014-01-01 02:15:00
8:35 PM,-14.4,-20.4,75,30.26,10.0,North,4.6,-,N/A,,Clear,10,2014-01-01 02:35:00
8:55 PM,-13.9,-19.3,77,30.27,10.0,Calm,Calm,-,N/A,,Clear,0,2014-01-01 02:55:00
9:15 PM,-15.5,-20.4,79,30.26,10.0,Calm,Calm,-,N/A,,Clear,0,2014-01-01 03:15:00
9:35 PM,-14.1,-18.9,79,30.27,10.0,North,4.6,-,N/A,,Clear,10,2014-01-01 03:35:00
9:55 PM,-16.4,-21.8,76,30.27,10.0,Calm,Calm,-,N/A,,Clear,0,2014-01-01 03:55:00
10:15 PM,-19.5,-24.3,78,30.27,10.0,Calm,Calm,-,N/A,,Clear,0,2014-01-01 04:15:00
10:35 PM,-19.7,-24.2,80,30.29,10.0,Calm,Calm,-,N/A,,Clear,0,2014-01-01 04:35:00
10:55 PM,-19.1,-23.6,80,30.30,10.0,Calm,Calm,-,N/A,,Clear,0,2014-01-01 04:55:00
11:15 PM,-18.2,-22.5,81,30.30,10.0,Calm,Calm,-,N/A,,Clear,0,2014-01-01 05:15:00
11:35 PM,-15.9,-20.6,79,30.30,10.0,Calm,Calm,-,N/A,,Scattered Clouds,0,2014-01-01 05:35:00
11:55 PM,-15.2,-19.8,79,30.29,10.0,Calm,Calm,-,N/A,,Scattered Clouds,0,2014-01-01 05:55:00